period_start,C,m1,H,J0,J1,J2,J3,J4,J5,JA,JB,JC,JD,JJ,JK,JN,#
2018-04-04 00:04:06,0.15,5.77,0.00,25.41,28.92,32.01,14.05,48.96,1033.71,2016.04,1754.82,1899.39,2170.08,600.03,601.22,35.46,0000 0000 0000 0000 000000
2018-04-04 00:09:08,0.16,5.78,0.00,25.43,28.94,32.00,14.12,48.88,1033.70,2016.04,1753.29,1898.21,2168.75,600.31,601.53,35.51,0000 0000 0000 0000 000000
2018-04-04 00:14:09,0.16,5.79,0.00,25.42,28.94,31.99,14.12,49.16,1033.43,2016.04,1751.79,1897.09,2167.50,599.97,600.99,35.56,0000 0000 0000 0000 000000
2018-04-04 00:19:11,0.17,5.80,0.00,25.42,28.94,31.97,14.12,49.13,1033.32,2016.03,1750.26,1895.92,2166.13,600.20,601.09,35.61,0000 0000 0000 0000 000000
2018-04-04 00:24:12,0.19,5.80,0.00,25.42,28.93,31.97,14.06,49.06,1033.24,2016.03,1748.67,1894.74,2164.78,599.61,600.49,35.66,0000 0000 0000 0000 000000
2018-04-04 00:29:13,0.17,5.81,0.00,25.43,28.93,31.95,14.07,49.09,1033.29,2016.01,1747.11,1893.58,2163.44,599.94,600.79,35.71,0000 0000 0000 0000 000000
2018-04-04 00:34:15,0.17,5.82,0.00,25.45,28.92,31.93,14.08,49.02,1033.65,2016.02,1745.42,1892.41,2162.08,599.96,600.97,35.76,0000 0000 0000 0000 000000
2018-04-04 00:39:16,0.17,5.83,0.00,25.45,28.92,31.92,14.05,49.00,1033.71,2016.03,1743.85,1891.27,2160.76,599.73,600.90,35.81,0000 0000 0000 0000 000000
2018-04-04 00:44:17,0.16,5.84,0.00,25.44,28.91,31.93,14.04,48.98,1033.72,2016.02,1742.31,1890.08,2159.50,599.64,600.75,35.86,0000 0000 0000 0000 000000
2018-04-04 00:49:18,0.18,5.85,0.00,25.45,28.90,31.92,14.02,48.81,1033.83,2016.04,1740.64,1888.91,2158.14,599.78,601.07,35.91,0000 0000 0000 0000 000000
2018-04-04 00:54:20,0.17,5.86,0.00,25.45,28.89,31.92,14.11,48.95,1034.10,2016.13,1739.14,1887.87,2156.85,600.18,601.44,35.96,0000 0000 0000 0000 000000
2018-04-04 00:59:20,0.19,5.87,0.00,25.45,28.87,31.90,14.05,48.85,1034.00,2016.16,1737.66,1886.67,2155.59,599.53,600.76,36.01,0000 0000 0000 0000 000000
2018-04-04 01:04:21,0.16,5.88,0.00,25.47,28.86,31.94,13.97,48.79,1034.17,2016.20,1736.13,1885.56,2154.31,599.47,600.83,36.06,0000 0000 0000 0000 000000
2018-04-04 01:09:23,0.20,5.89,0.00,25.48,28.85,32.00,14.07,48.74,1034.22,2016.40,1734.62,1884.46,2152.99,599.80,601.14,36.11,0000 0000 0000 0000 000000
2018-04-04 01:14:24,0.19,5.90,0.00,25.51,28.84,31.96,14.03,48.86,1034.34,2016.60,1733.08,1883.33,2151.71,599.83,601.19,36.16,0000 0000 0000 0000 000000
2018-04-04 01:19:25,0.20,5.91,0.00,25.58,28.82,31.91,14.08,48.77,1034.63,2016.85,1731.43,1882.14,2150.41,600.13,601.47,36.21,0000 0000 0000 0000 000000
2018-04-04 01:24:26,0.16,5.92,0.00,25.61,28.81,31.90,14.02,48.91,1034.59,2016.90,1729.82,1881.01,2149.13,599.77,601.14,36.26,0000 0000 0000 0000 000000
2018-04-04 01:29:27,0.18,5.93,0.00,25.59,28.80,31.75,14.10,49.10,1034.62,2016.95,1728.51,1879.91,2147.81,600.47,601.74,36.32,0000 0000 0000 0000 000000
2018-04-04 01:34:29,0.16,5.93,0.00,25.50,28.77,31.60,14.04,49.22,1034.68,2016.96,1727.07,1878.80,2146.55,600.20,601.83,36.37,0000 0000 0000 0000 000000
2018-04-04 01:39:30,0.18,5.94,0.00,25.14,28.73,31.59,14.15,49.70,1034.68,2016.99,1725.53,1877.70,2145.35,600.10,602.41,36.42,0000 0000 0000 0000 000000
2018-04-04 01:44:31,0.18,5.95,0.00,24.78,28.67,31.30,14.04,49.63,1034.70,2016.99,1723.75,1876.59,2144.08,600.05,603.13,36.47,0000 0000 0000 0000 000000
2018-04-04 01:49:32,0.15,5.96,0.00,24.46,28.59,30.73,14.11,49.48,1034.70,2017.02,1722.29,1875.65,2142.95,600.20,603.85,36.52,0000 0000 0000 0000 000000
2018-04-04 01:54:33,0.25,5.97,0.00,24.12,28.50,30.20,14.13,49.33,1034.62,2017.63,1720.70,1874.80,2141.93,599.90,604.27,36.57,0000 0000 0000 0000 000000
2018-04-04 01:59:35,0.14,5.98,0.00,23.85,28.39,29.70,14.15,49.58,1034.45,2017.99,1719.43,1874.01,2141.03,600.13,604.89,36.62,0000 0000 0000 0000 000000
2018-04-04 02:04:36,0.20,5.99,0.00,23.55,28.26,29.27,14.17,49.77,1034.54,2018.33,1718.03,1873.25,2140.19,599.87,605.25,36.67,0000 0000 0000 0000 000000
2018-04-04 02:09:37,0.19,6.00,0.00,23.23,28.12,28.92,14.12,49.92,1034.66,2018.96,1716.75,1872.61,2139.40,600.01,606.22,36.72,0000 0000 0000 0000 000000
2018-04-04 02:14:38,0.20,6.01,0.00,22.88,27.96,28.77,14.18,50.17,1034.23,2019.50,1715.45,1871.99,2138.70,600.28,606.91,36.77,0000 0000 0000 0000 000000
2018-04-04 02:19:40,0.14,6.02,0.00,22.52,27.79,28.44,14.21,50.46,1034.20,2020.03,1714.28,1871.29,2138.00,599.78,607.10,36.82,0000 0000 0000 0000 000000
2018-04-04 02:24:41,0.20,6.03,0.00,22.17,27.60,28.12,14.34,50.61,1034.20,2020.80,1713.07,1870.94,2137.20,600.21,608.29,36.87,0000 0000 0000 0000 000000
2018-04-04 02:29:42,0.20,6.04,0.00,22.00,27.41,27.83,14.30,50.51,1034.20,2021.44,1711.97,1870.19,2136.87,599.91,608.34,36.92,0000 0000 0000 0000 000000
2018-04-04 02:34:44,0.11,6.05,0.00,21.88,27.22,27.58,14.25,50.61,1034.21,2022.10,1710.99,1869.94,2136.07,599.96,608.67,36.97,0000 0000 0000 0000 000000
2018-04-04 02:39:45,0.23,6.06,0.00,21.79,27.03,27.39,14.20,50.69,1034.21,2022.92,1709.87,1869.14,2135.68,599.93,608.76,37.02,0000 0000 0000 0000 000000
2018-04-04 02:44:46,0.20,6.07,0.00,21.75,26.86,27.37,14.27,50.61,1034.22,2023.67,1708.77,1868.79,2134.98,600.19,609.07,37.07,0000 0000 0000 0000 000000
2018-04-04 02:49:47,0.15,6.07,0.00,21.74,26.69,27.44,14.38,50.63,1034.27,2024.14,1707.79,1868.05,2134.28,600.51,609.55,37.12,0000 0000 0000 0000 000000
2018-04-04 02:54:48,0.20,6.08,0.00,21.77,26.54,27.49,14.16,50.54,1034.51,2024.92,1706.63,1867.58,2133.68,599.65,608.69,37.17,0000 0000 0000 0000 000000
2018-04-04 02:59:49,0.17,6.09,0.00,21.82,26.41,27.57,14.32,50.68,1034.56,2025.38,1705.49,1866.98,2132.95,599.77,608.77,37.22,0000 0000 0000 0000 000000
2018-04-04 03:04:50,0.17,6.10,0.00,21.84,26.28,27.80,14.23,50.63,1034.59,2025.97,1704.17,1866.13,2132.07,599.90,608.86,37.27,0000 0000 0000 0000 000000
2018-04-04 03:09:51,0.24,6.11,0.00,21.88,26.16,28.05,14.22,50.67,1034.66,2026.62,1702.99,1865.52,2131.25,599.73,608.62,37.33,0000 0000 0000 0000 000000
2018-04-04 03:14:53,0.15,6.12,0.00,21.94,26.07,28.16,14.27,50.63,1034.67,2027.00,1701.74,1864.74,2130.40,599.98,608.76,37.38,0000 0000 0000 0000 000000
2018-04-04 03:19:54,0.18,6.13,0.00,22.00,25.98,28.34,14.34,50.74,1034.68,2027.31,1700.42,1863.90,2129.39,599.90,608.57,37.43,0000 0000 0000 0000 000000
2018-04-04 03:24:56,0.19,6.14,0.00,22.08,25.92,28.30,14.26,50.65,1034.68,2027.97,1699.30,1863.02,2128.48,599.79,608.33,37.48,0000 0000 0000 0000 000000
2018-04-04 03:29:57,0.15,6.15,0.00,22.17,25.86,28.29,14.16,50.60,1034.70,2027.99,1697.86,1862.08,2127.42,599.69,607.77,37.53,0000 0000 0000 0000 000000
2018-04-04 03:34:58,0.18,6.16,0.00,22.25,25.82,28.48,14.19,50.50,1034.81,2028.13,1696.46,1861.17,2126.38,599.82,608.12,37.58,0000 0000 0000 0000 000000
2018-04-04 03:39:59,0.23,6.17,0.00,22.33,25.79,28.55,14.28,50.45,1035.08,2028.74,1695.11,1860.16,2125.25,600.39,608.58,37.63,0000 0000 0000 0000 000000
2018-04-04 03:45:01,0.17,6.18,0.00,22.46,25.77,28.55,14.23,50.24,1035.17,2028.97,1693.74,1859.30,2124.19,600.02,607.98,37.68,0000 0000 0000 0000 000000
2018-04-04 03:50:02,0.15,6.19,0.00,22.55,25.76,28.58,14.32,50.23,1035.21,2028.99,1692.29,1858.20,2122.99,600.24,608.02,37.73,0000 0000 0000 0000 000000
2018-04-04 03:55:03,0.15,6.20,0.00,22.65,25.77,28.61,14.19,50.15,1035.35,2028.99,1690.98,1857.13,2121.81,599.54,607.47,37.78,0000 0000 0000 0000 000000
2018-04-04 04:00:05,0.17,6.21,0.00,22.75,25.77,28.61,14.24,50.08,1035.63,2028.99,1689.71,1856.11,2120.63,600.16,607.84,37.83,0000 0000 0000 0000 000000
2018-04-04 04:05:06,0.17,6.22,0.00,22.85,25.80,28.68,14.21,50.20,1035.66,2028.99,1688.13,1855.06,2119.31,599.86,607.37,37.88,0000 0000 0000 0000 000000
2018-04-04 04:10:07,0.19,6.22,0.00,22.96,25.82,28.72,14.21,49.95,1035.66,2028.99,1686.64,1854.01,2117.92,599.84,607.09,37.93,0000 0000 0000 0000 000000
2018-04-04 04:15:08,0.21,6.23,0.00,23.04,25.86,28.77,14.17,50.04,1035.66,2028.99,1684.89,1852.72,2116.50,599.54,606.75,37.98,0000 0000 0000 0000 000000
2018-04-04 04:20:10,0.16,6.24,0.00,23.13,25.89,28.83,14.19,49.95,1035.70,2028.98,1683.57,1851.59,2115.21,599.69,606.67,38.03,0000 0000 0000 0000 000000
2018-04-04 04:25:11,0.18,6.25,0.00,23.22,25.94,28.89,14.16,49.96,1035.74,2028.96,1682.19,1850.46,2113.78,600.00,606.79,38.08,0000 0000 0000 0000 000000
2018-04-04 04:30:12,0.14,6.26,0.00,23.31,25.99,28.96,14.10,49.67,1035.73,2028.80,1680.71,1849.24,2112.45,600.32,607.01,38.13,0000 0000 0000 0000 000000
2018-04-04 04:35:13,0.10,6.27,0.00,23.40,26.05,29.03,14.18,49.80,1035.87,2028.20,1679.09,1847.94,2111.03,600.13,606.74,38.19,0000 0000 0000 0000 000000
2018-04-04 04:40:14,0.22,6.28,0.00,23.49,26.10,29.10,14.13,49.73,1036.15,2028.02,1677.34,1846.55,2109.61,600.42,606.98,38.24,0000 0000 0000 0000 000000
2018-04-04 04:45:16,0.22,6.29,0.00,23.57,26.17,29.18,14.09,49.67,1036.15,2028.00,1675.54,1845.13,2107.90,599.88,606.15,38.29,0000 0000 0000 0000 000000
2018-04-04 04:50:17,0.24,6.30,0.00,23.67,26.23,29.26,14.10,49.68,1036.15,2027.99,1673.55,1843.59,2106.14,599.94,605.90,38.34,0000 0000 0000 0000 000000
2018-04-04 04:55:18,0.21,6.31,0.00,23.75,26.30,29.33,14.16,49.62,1036.15,2027.76,1671.47,1841.95,2104.35,599.62,605.59,38.39,0000 0000 0000 0000 000000
2018-04-04 05:00:20,0.20,6.32,0.00,23.83,26.36,29.41,14.16,49.73,1036.16,2027.10,1669.30,1840.23,2102.35,599.86,605.73,38.44,0000 0000 0000 0000 000000
2018-04-04 05:05:21,0.29,6.33,0.00,23.93,26.43,29.48,14.19,49.67,1036.48,2027.00,1667.05,1838.22,2100.04,600.53,606.28,38.49,0000 0000 0000 0000 000000
2018-04-04 05:10:22,0.25,6.35,0.00,24.00,26.51,29.57,14.11,49.70,1036.63,2026.99,1665.27,1836.52,2098.08,599.76,605.49,38.54,0000 0000 0000 0000 000000
2018-04-04 05:15:24,0.15,6.36,0.00,24.09,26.58,29.65,14.15,49.72,1036.64,2026.69,1663.57,1835.06,2096.45,600.06,605.53,38.59,0000 0000 0000 0000 000000
2018-04-04 05:20:25,0.16,6.36,0.00,24.18,26.65,29.72,14.20,49.73,1036.64,2026.06,1661.87,1833.68,2094.83,600.57,605.94,38.64,0000 0000 0000 0000 000000
2018-04-04 05:25:26,0.18,6.37,0.00,24.26,26.72,29.80,14.23,49.76,1036.64,2026.00,1660.33,1832.36,2093.34,600.11,605.36,38.69,0000 0000 0000 0000 000000
2018-04-04 05:30:27,0.19,6.38,0.00,24.35,26.80,29.88,14.18,49.67,1036.68,2025.98,1658.83,1831.07,2091.86,600.07,605.05,38.74,0000 0000 0000 0000 000000
2018-04-04 05:35:29,0.10,6.39,0.00,24.43,26.87,29.96,14.11,49.58,1036.89,2025.34,1657.24,1829.74,2090.40,600.28,605.32,38.79,0000 0000 0000 0000 000000
2018-04-04 05:40:30,0.21,6.40,0.00,24.51,26.95,30.04,14.15,49.67,1037.08,2025.00,1655.45,1828.36,2088.73,600.24,605.18,38.84,0000 0000 0000 0000 000000
2018-04-04 05:45:31,0.22,6.41,0.00,24.59,27.03,30.12,14.15,49.61,1037.12,2024.96,1653.56,1826.86,2087.07,600.16,605.04,38.89,0000 0000 0000 0000 000000
2018-04-04 05:50:32,0.13,6.42,0.00,24.67,27.11,30.20,14.18,49.52,1037.16,2024.45,1651.82,1825.48,2085.45,600.34,604.86,38.94,0000 0000 0000 0000 000000
2018-04-04 05:55:34,0.19,6.43,0.00,24.74,27.18,30.27,14.09,49.58,1037.36,2024.02,1650.05,1824.02,2083.78,599.83,604.43,38.99,0000 0000 0000 0000 000000
2018-04-04 06:00:36,0.20,6.44,0.00,24.82,27.26,30.35,14.13,49.63,1037.55,2023.99,1648.40,1822.61,2082.18,599.97,604.52,39.04,0000 0000 0000 0000 000000
2018-04-04 06:05:37,0.15,6.45,0.00,24.88,27.34,30.43,14.07,49.63,1037.61,2023.61,1646.59,1821.12,2080.53,599.77,604.22,39.09,0000 0000 0000 0000 000000
2018-04-04 06:10:38,0.20,6.45,0.00,24.95,27.41,30.50,14.09,49.69,1037.62,2023.05,1644.70,1819.68,2078.80,599.59,603.92,39.14,0000 0000 0000 0000 000000
2018-04-04 06:15:40,0.18,6.46,0.00,25.03,27.49,30.57,14.18,49.58,1037.80,2023.00,1643.03,1818.39,2077.27,600.38,604.79,39.19,0000 0000 0000 0000 000000
2018-04-04 06:20:41,0.16,6.48,0.00,25.09,27.56,30.65,14.12,49.63,1038.05,2022.74,1641.37,1816.95,2075.72,600.17,604.57,39.25,0000 0000 0000 0000 000000
2018-04-04 06:25:42,0.11,6.48,0.00,25.16,27.64,30.73,14.09,49.54,1038.10,2022.08,1639.93,1815.69,2074.28,599.77,604.12,39.30,0000 0000 0000 0000 000000
2018-04-04 06:30:43,0.22,6.49,0.00,25.23,27.71,30.80,14.08,49.52,1038.10,2022.00,1638.45,1814.41,2072.76,599.62,603.71,39.35,0000 0000 0000 0000 000000
2018-04-04 06:35:45,0.17,6.50,0.00,25.30,27.79,30.88,13.98,49.39,1038.10,2021.89,1636.85,1813.12,2071.27,599.76,603.70,39.40,0000 0000 0000 0000 000000
2018-04-04 06:40:46,0.13,6.51,0.00,25.35,27.86,30.97,14.09,49.48,1038.10,2021.31,1635.22,1811.75,2069.69,599.89,603.57,39.45,0000 0000 0000 0000 000000
2018-04-04 06:45:47,0.19,6.51,0.00,25.39,27.92,31.02,14.03,49.48,1038.10,2021.01,1633.54,1810.42,2068.11,600.10,603.85,39.50,0000 0000 0000 0000 000000
2018-04-04 06:50:48,0.21,6.53,0.00,25.47,27.98,31.09,14.02,49.41,1038.10,2020.99,1631.83,1808.99,2066.58,599.93,603.45,39.55,0000 0000 0000 0000 000000
2018-04-04 06:55:50,0.17,6.54,0.00,25.58,28.04,31.15,14.05,49.38,1038.12,2020.80,1630.16,1807.75,2065.11,599.81,603.21,39.60,0000 0000 0000 0000 000000
2018-04-04 07:00:51,0.14,6.54,0.00,25.68,28.09,31.17,14.07,49.39,1038.11,2020.20,1628.51,1806.46,2063.61,600.01,603.12,39.65,0000 0000 0000 0000 000000
2018-04-04 07:05:52,0.18,6.55,0.00,25.74,28.13,31.19,14.10,49.31,1038.11,2020.01,1626.92,1805.18,2062.11,600.17,603.22,39.70,0000 0000 0000 0000 000000
2018-04-04 07:10:53,0.22,6.56,0.00,25.80,28.16,31.22,14.08,49.30,1038.14,2020.00,1625.19,1803.80,2060.59,600.16,603.20,39.75,0000 0000 0000 0000 000000
2018-04-04 07:15:55,0.21,6.57,0.00,25.85,28.19,31.24,14.03,49.40,1038.19,2020.00,1623.54,1802.54,2059.08,599.67,602.59,39.80,0000 0000 0000 0000 000000
2018-04-04 07:20:56,0.21,6.59,0.00,25.90,28.21,31.25,14.01,49.33,1038.41,2019.98,1621.77,1801.19,2057.53,599.52,602.39,39.85,0000 0000 0000 0000 000000
2018-04-04 07:25:58,0.16,6.59,0.00,25.96,28.24,31.23,14.06,49.37,1038.57,2019.75,1620.14,1799.83,2056.07,600.25,603.22,39.90,0000 0000 0000 0000 000000
2018-04-04 07:30:59,0.16,6.60,0.00,26.00,28.25,31.26,14.04,49.43,1038.59,2019.24,1618.42,1798.58,2054.56,600.00,602.80,39.95,0000 0000 0000 0000 000000
2018-04-04 07:36:00,0.19,6.61,0.00,26.04,28.26,31.26,14.01,49.45,1038.59,2019.05,1616.64,1797.23,2052.94,600.17,602.90,40.00,0000 0000 0000 0000 000000
2018-04-04 07:41:02,0.21,6.62,0.00,26.08,28.27,31.29,13.99,49.44,1038.59,2019.06,1614.93,1795.90,2051.52,599.68,602.41,40.05,0000 0000 0000 0000 000000
2018-04-04 07:46:03,0.21,6.63,0.00,26.10,28.27,31.27,13.98,49.51,1038.59,2019.03,1613.28,1794.62,2050.00,600.27,602.84,40.10,0000 0000 0000 0000 000000
2018-04-04 07:51:04,0.21,6.64,0.00,26.15,28.27,31.20,14.04,49.61,1038.59,2019.01,1611.65,1793.39,2048.58,600.43,603.03,40.16,0000 0000 0000 0000 000000
2018-04-04 07:56:05,0.18,6.65,0.00,26.19,28.27,31.22,14.05,49.60,1038.59,2019.01,1609.98,1792.20,2047.18,600.30,602.68,40.21,0000 0000 0000 0000 000000
2018-04-04 08:01:07,0.20,6.67,0.00,26.25,28.26,31.24,14.17,49.70,1038.60,2019.00,1608.30,1790.97,2045.91,600.36,602.68,40.26,0000 0000 0000 0000 000000
2018-04-04 08:06:08,0.22,6.67,0.00,26.31,28.25,31.21,14.04,49.61,1038.62,2019.00,1606.64,1789.72,2044.53,599.85,602.04,40.31,0000 0000 0000 0000 000000
2018-04-04 08:11:09,0.21,6.69,0.00,26.35,28.25,31.15,13.97,49.44,1038.64,2019.00,1604.92,1788.45,2043.01,599.78,601.92,40.36,0000 0000 0000 0000 000000
2018-04-04 08:16:10,0.19,6.70,0.00,26.42,28.25,31.07,14.07,49.43,1038.84,2019.00,1603.28,1787.25,2041.56,600.01,602.07,40.41,0000 0000 0000 0000 000000
2018-04-04 08:21:12,0.21,6.71,0.00,26.48,28.25,31.04,14.07,49.34,1039.05,2019.00,1601.70,1785.96,2040.17,599.87,601.99,40.46,0000 0000 0000 0000 000000
2018-04-04 08:26:13,0.23,6.72,0.00,26.51,28.25,31.03,13.98,49.40,1039.07,2019.00,1599.94,1784.67,2038.65,599.95,602.03,40.51,0000 0000 0000 0000 000000
2018-04-04 08:31:14,0.19,6.73,0.00,26.31,28.23,31.01,14.01,49.50,1039.08,2019.00,1598.44,1783.44,2037.17,600.27,602.73,40.56,0000 0000 0000 0000 000000
2018-04-04 08:36:16,0.20,6.74,0.00,26.22,28.22,31.02,13.95,49.44,1039.10,2019.00,1596.81,1782.23,2035.75,599.74,602.47,40.61,0000 0000 0000 0000 000000
2018-04-04 08:41:17,0.21,6.75,0.00,26.21,28.22,31.03,13.94,49.38,1039.15,2019.00,1595.12,1780.91,2034.33,599.73,602.58,40.66,0000 0000 0000 0000 000000
2018-04-04 08:46:18,0.22,6.76,0.00,26.19,28.22,31.06,14.01,49.33,1039.46,2019.00,1593.36,1779.66,2032.81,599.93,602.89,40.71,0000 0000 0000 0000 000000
2018-04-04 08:51:20,0.22,6.77,0.00,26.19,28.23,31.09,14.08,49.41,1039.57,2019.00,1591.62,1778.31,2031.38,599.82,602.89,40.76,0000 0000 0000 0000 000000
2018-04-04 08:56:21,0.19,6.78,0.00,26.20,28.25,31.12,14.10,49.45,1039.58,2019.00,1590.09,1777.03,2029.81,600.13,603.10,40.81,0000 0000 0000 0000 000000
2018-04-04 09:01:22,0.24,6.79,0.00,26.21,28.25,31.11,14.02,49.34,1039.58,2019.00,1588.33,1775.76,2028.36,599.84,602.87,40.86,0000 0000 0000 0000 000000
2018-04-04 09:06:23,0.24,6.81,0.00,26.23,28.26,31.14,13.97,49.39,1039.62,2019.00,1586.44,1774.36,2026.73,599.88,602.92,40.91,0000 0000 0000 0000 000000
2018-04-04 09:11:24,0.21,6.82,0.00,26.25,28.27,31.16,13.99,49.42,1039.71,2019.00,1584.67,1773.01,2025.23,599.92,602.88,40.96,0000 0000 0000 0000 000000
2018-04-04 09:16:25,0.23,6.83,0.00,26.25,28.28,31.15,14.05,49.48,1039.89,2019.00,1582.97,1771.72,2023.72,599.89,602.95,41.02,0000 0000 0000 0000 000000
2018-04-04 09:21:27,0.21,6.84,0.00,26.27,28.30,31.17,14.05,49.52,1040.00,2018.99,1581.25,1770.42,2022.12,600.22,603.32,41.07,0000 0000 0000 0000 000000
2018-04-04 09:26:28,0.23,6.85,0.00,26.27,28.30,31.18,13.98,49.50,1040.04,2018.98,1579.49,1768.99,2020.58,599.94,603.10,41.12,0000 0000 0000 0000 000000
2018-04-04 09:31:30,0.24,6.86,0.00,26.30,28.32,31.18,14.09,49.48,1040.04,2018.96,1577.71,1767.64,2018.95,600.29,603.37,41.17,0000 0000 0000 0000 000000
2018-04-04 09:36:31,0.21,6.88,0.00,26.31,28.33,31.21,14.06,49.56,1040.04,2018.93,1575.93,1766.31,2017.45,600.51,603.54,41.22,0000 0000 0000 0000 000000
2018-04-04 09:41:32,0.20,6.89,0.00,26.32,28.35,31.25,14.02,49.51,1040.05,2018.73,1574.17,1764.88,2015.87,600.08,603.07,41.27,0000 0000 0000 0000 000000
2018-04-04 09:46:33,0.18,6.90,0.00,26.34,28.35,31.25,14.05,49.47,1040.05,2018.43,1572.40,1763.58,2014.25,600.23,603.24,41.32,0000 0000 0000 0000 000000
2018-04-04 09:51:35,0.20,6.91,0.00,26.37,28.37,31.27,13.98,49.45,1040.05,2018.16,1570.59,1762.17,2012.65,599.81,602.73,41.37,0000 0000 0000 0000 000000
2018-04-04 09:56:36,0.22,6.92,0.00,26.37,28.38,31.30,14.09,49.41,1040.05,2018.02,1568.80,1760.79,2011.05,600.09,602.98,41.42,0000 0000 0000 0000 000000
2018-04-04 10:01:38,0.23,6.93,0.00,26.39,28.40,31.31,13.96,49.45,1040.07,2018.00,1567.07,1759.53,2009.52,599.91,602.83,41.47,0000 0000 0000 0000 000000
2018-04-04 10:06:39,0.24,6.94,0.00,26.40,28.41,31.31,14.02,49.38,1040.06,2018.00,1565.21,1758.03,2007.88,600.05,602.91,41.52,0000 0000 0000 0000 000000
2018-04-04 10:11:40,0.25,6.95,0.00,26.40,28.42,31.33,14.05,49.46,1040.08,2018.00,1563.41,1756.63,2006.28,599.86,602.72,41.57,0000 0000 0000 0000 000000
2018-04-04 10:16:41,0.24,6.97,0.00,26.41,28.44,31.36,13.96,49.42,1040.11,2018.00,1561.58,1755.26,2004.65,599.92,602.81,41.62,0000 0000 0000 0000 000000
2018-04-04 10:21:43,0.24,6.98,0.00,26.42,28.45,31.37,14.07,49.54,1040.31,2018.00,1559.74,1753.79,2003.06,599.91,602.87,41.67,0000 0000 0000 0000 000000
2018-04-04 10:26:44,0.23,6.99,0.00,26.40,28.47,31.39,14.07,49.49,1040.43,2017.98,1557.97,1752.49,2001.51,600.12,603.11,41.72,0000 0000 0000 0000 000000
2018-04-04 10:31:45,0.22,7.00,0.00,26.41,28.48,31.40,14.05,49.46,1040.45,2017.98,1556.21,1751.15,1999.91,599.94,603.09,41.77,0000 0000 0000 0000 000000
2018-04-04 10:36:47,0.23,7.01,0.00,26.40,28.50,31.44,14.06,49.45,1040.52,2017.96,1554.47,1749.76,1998.41,600.22,603.23,41.82,0000 0000 0000 0000 000000
2018-04-04 10:41:48,0.24,7.02,0.00,26.40,28.51,31.44,13.97,49.38,1040.54,2017.95,1552.71,1748.45,1996.77,599.84,603.06,41.87,0000 0000 0000 0000 000000
2018-04-04 10:46:50,0.21,7.04,0.00,26.39,28.52,31.48,14.07,49.58,1040.54,2017.91,1550.87,1747.07,1995.27,600.06,603.21,41.93,0000 0000 0000 0000 000000
2018-04-04 10:51:51,0.22,7.05,0.00,26.36,28.52,31.49,14.06,49.49,1040.55,2017.65,1549.00,1745.63,1993.62,599.86,603.07,41.98,0000 0000 0000 0000 000000
2018-04-04 10:56:52,0.21,7.06,0.00,26.36,28.55,31.51,14.05,49.39,1040.58,2017.64,1547.27,1744.38,1992.11,600.06,603.21,42.03,0000 0000 0000 0000 000000
2018-04-04 11:01:54,0.25,7.07,0.00,26.35,28.55,31.52,14.02,49.35,1040.69,2017.70,1545.53,1743.02,1990.59,599.78,603.08,42.08,0000 0000 0000 0000 000000
2018-04-04 11:06:55,0.19,7.08,0.00,26.34,28.55,31.52,14.05,49.17,1040.77,2017.36,1543.71,1741.67,1988.96,600.06,603.54,42.13,0000 0000 0000 0000 000000
2018-04-04 11:11:56,0.20,7.09,0.00,26.33,28.57,31.55,14.01,49.20,1040.93,2017.10,1541.95,1740.34,1987.43,599.92,603.52,42.18,0000 0000 0000 0000 000000
2018-04-04 11:16:57,0.24,7.11,0.00,26.33,28.57,31.53,14.04,49.17,1040.91,2017.06,1540.11,1738.90,1985.81,600.00,603.50,42.23,0000 0000 0000 0000 000000
2018-04-04 11:21:58,0.23,7.12,0.00,26.31,28.57,31.54,14.02,49.15,1040.91,2017.05,1538.38,1737.58,1984.39,600.02,603.60,42.28,0000 0000 0000 0000 000000
2018-04-04 11:26:59,0.22,7.13,0.00,26.30,28.58,31.53,14.11,49.23,1040.96,2017.05,1536.66,1736.33,1982.95,600.06,603.59,42.33,0000 0000 0000 0000 000000
2018-04-04 11:32:01,0.22,7.14,0.00,26.29,28.60,31.53,14.08,49.15,1041.02,2017.03,1535.02,1734.95,1981.52,599.74,603.35,42.38,0000 0000 0000 0000 000000
2018-04-04 11:37:02,0.23,7.15,0.00,26.29,28.60,31.54,14.12,49.14,1041.03,2017.01,1533.42,1733.65,1979.90,600.37,603.92,42.43,0000 0000 0000 0000 000000
2018-04-04 11:42:03,0.23,7.16,0.00,26.28,28.60,31.53,14.10,49.30,1040.94,2017.02,1531.66,1732.33,1978.40,600.15,603.78,42.48,0000 0000 0000 0000 000000
2018-04-04 11:47:05,0.22,7.18,0.00,26.29,28.60,31.56,14.04,49.30,1040.79,2017.00,1529.88,1731.01,1976.84,600.09,603.67,42.53,0000 0000 0000 0000 000000
2018-04-04 11:52:06,0.25,7.19,0.00,26.27,28.60,31.56,14.09,49.26,1040.58,2017.01,1528.11,1729.62,1975.35,600.02,603.50,42.58,0000 0000 0000 0000 000000
2018-04-04 11:57:08,0.23,7.20,0.00,26.27,28.60,31.54,14.09,49.23,1040.59,2017.00,1526.28,1728.31,1973.71,600.14,603.69,42.63,0000 0000 0000 0000 000000
2018-04-04 12:02:09,0.22,7.21,0.00,26.25,28.60,31.52,14.12,49.26,1040.56,2017.00,1524.44,1727.03,1972.26,600.06,603.55,42.68,0000 0000 0000 0000 000000
2018-04-04 12:07:10,0.25,7.22,0.00,26.24,28.60,31.56,14.12,49.33,1040.54,2017.00,1522.73,1725.77,1970.70,600.44,603.91,42.73,0000 0000 0000 0000 000000
2018-04-04 12:12:11,0.22,7.24,0.00,26.22,28.60,31.55,14.15,49.41,1040.54,2017.00,1521.00,1724.52,1969.23,600.26,603.68,42.78,0000 0000 0000 0000 000000
2018-04-04 12:17:13,0.22,7.25,0.00,26.21,28.60,31.55,14.02,49.31,1040.55,2016.99,1519.38,1723.21,1967.71,599.85,603.33,42.84,0000 0000 0000 0000 000000
2018-04-04 12:22:14,0.25,7.26,0.00,26.20,28.60,31.53,14.08,49.44,1040.54,2016.99,1517.56,1721.80,1966.18,600.23,603.83,42.89,0000 0000 0000 0000 000000
2018-04-04 12:27:15,0.24,7.27,0.00,26.20,28.60,31.54,14.18,49.41,1040.55,2016.99,1515.89,1720.53,1964.63,599.95,603.35,42.94,0000 0000 0000 0000 000000
2018-04-04 12:32:16,0.23,7.29,0.00,26.21,28.60,31.54,14.12,49.36,1040.56,2016.99,1514.09,1719.23,1963.04,600.06,603.49,42.99,0000 0000 0000 0000 000000
2018-04-04 12:37:18,0.23,7.30,0.00,26.20,28.60,31.54,14.09,49.26,1040.55,2016.99,1512.43,1717.87,1961.55,599.78,603.31,43.04,0000 0000 0000 0000 000000
2018-04-04 12:42:19,0.24,7.31,0.00,26.18,28.60,31.53,14.02,49.28,1040.54,2016.99,1510.72,1716.59,1960.09,599.95,603.53,43.09,0000 0000 0000 0000 000000
2018-04-04 12:47:20,0.23,7.32,0.00,26.17,28.60,31.52,14.06,49.20,1040.55,2016.99,1508.96,1715.30,1958.55,599.61,603.22,43.14,0000 0000 0000 0000 000000
2018-04-04 12:52:21,0.24,7.33,0.00,26.16,28.60,31.53,14.04,49.17,1040.56,2016.98,1507.22,1713.89,1956.98,600.04,603.74,43.19,0000 0000 0000 0000 000000
2018-04-04 12:57:22,0.25,7.34,0.00,26.14,28.60,31.53,14.02,49.08,1040.55,2016.99,1505.44,1712.61,1955.50,600.00,603.73,43.24,0000 0000 0000 0000 000000